Location: Lake Hudson State Recreational Area
(41.8372°N, 84.2445°W)
Time: 01:32:56
(UTC-04:00)

Envisat - Visible Passes

Search period start: 19 October 2017 00:00
Search period end: 29 October 2017 00:00
Orbit: 764 x 766 km, 98.2° (Epoch: 18 October)

Date Brightness Start Highest point End Pass type
(mag) Time Alt. Az. Time Alt. Az. Time Alt. Az.
19 Oct 4.0 20:35:33 29° NE 20:35:33 29° NE 20:38:56 10° N visible
19 Oct 5.2 22:15:46 22° NW 22:15:46 22° NW 22:17:58 10° NNW visible
20 Oct 4.6 19:58:34 15° NE 19:58:34 15° NE 20:01:04 10° NNE visible
20 Oct 4.3 21:38:47 34° NNW 21:38:47 34° NNW 21:41:40 10° NNW visible
21 Oct 3.9 21:01:48 35° NNE 21:01:48 35° NNE 21:04:53 10° N visible
21 Oct 5.9 22:42:01 12° NW 22:42:01 12° NW 22:42:43 10° NW visible
22 Oct 4.3 20:24:49 23° NE 20:24:49 23° NE 20:27:36 10° NNE visible
22 Oct 5.1 22:05:02 22° NW 22:05:02 22° NW 22:07:02 10° NNW visible
23 Oct 4.8 19:47:50 12° NE 19:47:50 12° NE 19:49:15 10° NE visible
23 Oct 4.4 21:28:03 30° NNW 21:28:03 30° NNW 21:30:36 10° NNW visible
24 Oct 4.2 20:51:04 27° NNE 20:51:04 27° NNE 20:53:40 10° N visible
24 Oct 5.8 22:31:16 13° NW 22:31:16 13° NW 22:32:03 10° NW visible
25 Oct 4.6 20:14:04 18° NE 20:14:04 18° NE 20:16:11 10° NNE visible
25 Oct 5.1 21:54:17 21° NNW 21:54:17 21° NNW 21:56:04 10° NNW visible
26 Oct 4.5 21:17:17 26° N 21:17:17 26° N 21:19:28 10° N visible
27 Oct 4.5 20:40:18 22° NNE 20:40:18 22° NNE 20:42:24 10° N visible
27 Oct 5.7 22:20:31 13° NW 22:20:31 13° NW 22:21:15 10° NW visible
28 Oct 4.8 20:03:18 14° NE 20:03:18 14° NE 20:04:40 10° NNE visible
28 Oct 5.1 21:43:31 20° NNW 21:43:31 20° NNW 21:45:03 10° NNW visible
